User: anonymous   Login
Location: Caltech
(34.1382°N, 118.1253°W)
Time: 20:37:07
(UTC-07:00)
Language:

OAO 1 Rocket - Orbit

View from above orbital plane
View from above orbital plane
View from above satellite
View from above satellite

Ground track
Ground track

The orbit data is extracted from the following two-line orbital elements,

1 02144U 66031B   16243.82353025  .00000074  00000-0  27957-4 0  9996
2 02144  35.0437   9.2167 0008612 357.9788   2.0867 14.42569620646158
Epoch (UTC): 30 August 2016 19:45:53
Eccentricity: 0.0008612
inclination: 35.0437°
perigee height: 744 km
apogee height: 756 km
right ascension of ascending node: 9.2167°
argument of perigee: 357.9788°
revolutions per day: 14.42569620
mean anomaly at epoch: 2.0867°
orbit number at epoch: 64615

The dashed part of the orbit path shows where the satellite is in the earth's shadow,  

DLR